Powrót do katalogu

STARLINK-30266

AktywnyŁącznośćVLEO
NORAD 57529·PAYLOAD·🇺🇸 United States

Wystrzelony Aug 8, 2023 z Vandenberg Space Force Base

Loading…

Następne Przeloty (najbliższe 24 godziny)

TLE

ŚwieżeSource: CelesTrak SupGP

Epoka: Sep 15, 2026, 01:56 UTC

1 57529C 23115J   26258.08104167 -.00066192  00000+0 -23975-2 0  2581
2 57529  43.0047  11.8247 0002175 268.4889 266.5640 15.27609878    14

Śledź STARLINK-30266 w czasie rzeczywistym z AllMySat

Download on the App Store